Weather History for Tel Aviv, Israel

Change the Weather History Date:

Sunday, February 17, 2013

  Actual Average Record
Temperature  
Mean Temperature 58 °F -  
Max Temperature 64 °F 65 °F 78 °F (1999)
Min Temperature 51 °F 50 °F 44 °F (2003)
Degree Days  
Heating Degree Days 8    
Growing Degree Days 8 (Base 50)    
Moisture  
Dew Point 49 °F    
Average Humidity 75    
Maximum Humidity 94    
Minimum Humidity 42    
Precipitation  
Precipitation 0.00 in - - ()
Sea Level Pressure  
Sea Level Pressure 30.04 in    
Wind  
Wind Speed 5 mph ()    
Max Wind Speed 8 mph    
Max Gust Speed -    
Visibility 6.0 miles    
Events Rain    
Averages and records for this station are not official NWS values.
T = Trace of Precipitation, MM = Missing Value Source: Averaged Metar Reports

Daily Weather History Graph

Daily Weather History Graph

Search for Another Location

Airport:

Trip Planner

Search our weather history database for the weather conditions in past years. The results will help you decide how hot, cold, wet, or windy it might be!

Date:

Astronomy

Feb. 17, 2013 Rise Set
Actual Time 6:20 AM IST 5:28 PM IST
Civil Twilight 5:55 AM IST 5:53 PM IST
Nautical Twilight 5:27 AM IST 6:22 PM IST
Astronomical Twilight 4:58 AM IST 6:50 PM IST
Moon 10:26 AM IST (2/17) No Moon Set
Length of Visible Light 11h 57m
Length of Day
11h 07m
Waxing Crescent, 46% of the Moon is Illuminated
Feb 17
Waxing Crescent
Feb 17
First Quarter
Feb 25
Full
Mar 4
Last Quarter
Mar 11
New

Hourly Weather History & Observations

Time (IST) Temp. Dew Point Humidity Pressure Visibility Wind Dir Wind Speed Gust Speed Precip Events Conditions
12:20 AM 55.4 °F 50.0 °F 82% 30.06 in 6.2 mi South 6.9 mph - N/A   Scattered Clouds
12:50 AM 55.4 °F 50.0 °F 82% 30.06 in 6.2 mi South 6.9 mph - N/A   Scattered Clouds
1:20 AM 53.6 °F 50.0 °F 88% 30.09 in 6.2 mi Variable 2.3 mph - N/A   Scattered Clouds
1:50 AM 53.6 °F 50.0 °F 88% 30.06 in 6.2 mi Variable 2.3 mph - N/A   Mostly Cloudy
2:00 AM 54 °F 50 °F 82% 30.08 in 6 mi 2.3 mph - -  
2:20 AM 53.6 °F 50.0 °F 88% 30.06 in 6.2 mi Variable 3.5 mph - N/A   Mostly Cloudy
2:50 AM 53.6 °F 50.0 °F 88% 30.06 in 6.2 mi SSE 5.8 mph - N/A   Mostly Cloudy
3:20 AM 55.4 °F 50.0 °F 82% 30.06 in 6.2 mi SSE 3.5 mph - N/A   Mostly Cloudy
3:50 AM 53.6 °F 50.0 °F 88% 30.04 in 6.2 mi South 5.8 mph - N/A   Partly Cloudy
4:20 AM 51.8 °F 48.2 °F 88% 30.04 in 6.2 mi South 5.8 mph - N/A   Partly Cloudy
4:50 AM 53.6 °F 48.2 °F 82% 30.04 in 6.2 mi South 8.1 mph - N/A   Partly Cloudy
5:20 AM 51.8 °F 50.0 °F 94% 30.06 in 6.2 mi WNW 4.6 mph - N/A Rain Light Rain
5:50 AM 53.6 °F 50.0 °F 88% 30.06 in 6.2 mi South 5.8 mph - N/A   Scattered Clouds
6:20 AM 53.6 °F 48.2 °F 82% 30.06 in 6.2 mi Variable 2.3 mph - N/A   Scattered Clouds
6:50 AM 53.6 °F 48.2 °F 82% 30.06 in 6.2 mi Variable 3.5 mph - N/A Rain Light Rain
7:20 AM 53.6 °F 50.0 °F 88% 30.06 in 2.5 mi South 5.8 mph - N/A Rain Rain
7:50 AM 53.6 °F 50.0 °F 88% 30.06 in 5.0 mi South 6.9 mph - N/A Rain Light Rain
8:00 AM 54 °F 51 °F 84% 30.08 in 5 mi South 6.9 mph - -  
8:20 AM 55.4 °F 50.0 °F 82% 30.06 in 5.0 mi South 6.9 mph - N/A   Mostly Cloudy
8:50 AM 55.4 °F 50.0 °F 82% 30.06 in 5.0 mi SSE 6.9 mph - N/A   Scattered Clouds
9:20 AM 57.2 °F 51.8 °F 82% 30.06 in 5.0 mi SSE 5.8 mph - N/A   Partly Cloudy
9:50 AM 59.0 °F 51.8 °F 77% 30.06 in 6.2 mi South 5.8 mph - N/A   Partly Cloudy
10:20 AM 60.8 °F 51.8 °F 72% 30.04 in 6.2 mi Variable 3.5 mph - N/A   Partly Cloudy
10:50 AM 62.6 °F 51.8 °F 68% 30.06 in 6.2 mi SSW 5.8 mph - N/A   Partly Cloudy
11:20 AM 62.6 °F 48.2 °F 59% 30.06 in 6.2 mi Variable 3.5 mph - N/A   Scattered Clouds
11:50 AM 62.6 °F 48.2 °F 59% 30.04 in 6.2 mi SSW 5.8 mph - N/A   Mostly Cloudy
12:20 PM 62.6 °F 46.4 °F 55% 30.04 in 6.2 mi WNW 5.8 mph - N/A   Scattered Clouds
12:50 PM 64.4 °F 44.6 °F 49% 30.01 in 6.2 mi WSW 6.9 mph - N/A   Scattered Clouds
1:20 PM 64.4 °F 42.8 °F 45% 30.01 in 6.2 mi West 6.9 mph - N/A   Scattered Clouds
1:50 PM 64.4 °F 46.4 °F 52% 30.01 in 6.2 mi WSW 8.1 mph - N/A   Scattered Clouds
2:00 PM 64 °F 47 °F 42% 30.01 in 6 mi WSW 8.1 mph - -  
2:20 PM 62.6 °F 48.2 °F 59% 30.01 in 6.2 mi WSW 8.1 mph - N/A   Scattered Clouds
2:50 PM 62.6 °F 48.2 °F 59% 30.01 in 6.2 mi West 8.1 mph - N/A   Mostly Cloudy
3:20 PM 62.6 °F 48.2 °F 59% 30.01 in 6.2 mi West 8.1 mph - N/A   Mostly Cloudy
3:50 PM 62.6 °F 50.0 °F 63% 30.01 in 6.2 mi WSW 6.9 mph - N/A   Scattered Clouds
4:20 PM 62.6 °F 50.0 °F 63% 30.01 in 6.2 mi WNW 8.1 mph - N/A   Scattered Clouds
4:50 PM 60.8 °F 50.0 °F 68% 30.01 in 6.2 mi WNW 8.1 mph - N/A   Scattered Clouds
5:20 PM 60.8 °F 50.0 °F 68% 30.01 in 6.2 mi West 5.8 mph - N/A   Scattered Clouds
5:50 PM 60.8 °F 50.0 °F 68% 30.01 in 6.2 mi West 6.9 mph - N/A   Partly Cloudy
6:20 PM 59.0 °F 50.0 °F 72% 30.01 in 6.2 mi WNW 4.6 mph - N/A   Unknown
6:50 PM 59.0 °F 50.0 °F 72% 30.04 in 6.2 mi Variable 3.5 mph - N/A   Partly Cloudy
7:20 PM 57.2 °F 50.0 °F 77% 30.04 in 6.2 mi Variable 2.3 mph - N/A   Partly Cloudy
7:50 PM 57.2 °F 50.0 °F 77% 30.04 in 6.2 mi Variable 2.3 mph - N/A   Partly Cloudy
8:00 PM 58 °F 50 °F 66% 30.04 in 6 mi 2.3 mph - -  
8:20 PM 57.2 °F 50.0 °F 77% 30.04 in 6.2 mi Variable 2.3 mph - N/A   Partly Cloudy
8:50 PM 55.4 °F 50.0 °F 82% 30.04 in 6.2 mi Variable 2.3 mph - N/A   Partly Cloudy
9:20 PM 55.4 °F 48.2 °F 77% 30.04 in - Variable 1.2 mph - N/A   Clear
9:50 PM 53.6 °F 48.2 °F 82% 30.04 in - Variable 2.3 mph - N/A   Clear
10:20 PM 53.6 °F 48.2 °F 82% 30.04 in - Variable 2.3 mph - N/A   Clear
10:50 PM 53.6 °F 48.2 °F 82% 30.04 in - Variable 3.5 mph - N/A   Clear
11:20 PM 53.6 °F 48.2 °F 82% 30.04 in - Variable 2.3 mph - N/A   Clear
11:50 PM 51.8 °F 48.2 °F 88% 30.04 in - Variable 2.3 mph - N/A   Clear